CW0351 Weather Reports


time (UTC)temp
C
wind
direction
speed
KPH
gust
KPH
rain 1hr
cm
rain 24hr
cm
rain mn
cm
humidity
%
barometer
mb
20260507000053 18 200 0.0 6.4 0.00 0.00 0.00 80 1008.0
20260506234552 18 0 0.0 8.0 0.00 0.00 0.00 78 1007.9
20260506233102 18 0 1.6 8.0 0.00 0.00 0.00 77 1007.8
20260506231557 18 213 8.0 17.7 0.00 0.00 0.00 77 1007.7
20260506230056 19 241 0.0 17.7 0.00 0.00 0.00 76 1007.9
20260506224554 19 233 1.6 14.5 0.00 0.00 0.00 75 1007.8
20260506223054 19 229 0.0 12.9 0.00 0.00 0.00 76 1007.7
20260506221553 19 0 1.6 16.1 0.00 0.00 0.00 77 1007.6
20260506220052 18 233 3.2 19.3 0.00 0.00 0.00 78 1007.7
20260506214554 18 0 3.2 12.9 0.00 0.00 0.00 79 1007.5
20260506213112 18 0 4.8 12.9 0.00 0.00 0.00 80 1007.3
20260506211555 18 0 0.0 9.7 0.00 0.00 0.00 81 1007.3
20260506210051 18 213 1.6 12.9 0.00 0.00 0.00 80 1007.3
20260506204556 18 220 1.6 22.5 0.00 0.00 0.00 80 1007.1
20260506203056 17 243 6.4 19.3 0.00 0.00 0.00 82 1007.1
20260506201548 17 224 4.8 16.1 0.00 0.00 0.00 83 1007.2
20260506200055 17 223 4.8 17.7 0.00 0.00 0.00 84 1007.3
20260506194554 17 0 4.8 14.5 0.00 0.00 0.00 86 1007.3
20260506193049 16 194 3.2 12.9 0.00 0.00 0.00 87 1007.6
20260506191553 16 211 8.0 24.1 0.00 0.00 0.00 88 1007.7
20260506190048 16 249 4.8 22.5 0.00 0.00 0.00 89 1007.7
20260506184553 16 246 6.4 22.5 0.00 0.00 0.00 88 1007.9
20260506183056 16 227 3.2 22.5 0.00 0.00 0.00 87 1008.0
20260506181615 16 0 4.8 16.1 0.00 0.00 0.00 88 1008.0
20260506180054 16 161 8.0 19.3 0.00 0.00 0.00 88 1008.2
20260506174556 16 183 3.2 24.1 0.00 0.00 0.00 89 1008.2
20260506173101 16 0 3.2 16.1 0.00 0.00 0.00 90 1008.2
20260506171554 16 181 3.2 24.1 0.00 0.00 0.00 90 1008.4
20260506170055 16 191 6.4 25.7 0.00 0.00 0.00 91 1008.3
20260506164554 16 217 9.7 30.6 0.00 0.00 0.00 91 1008.5
20260506163052 16 167 3.2 14.5 0.00 0.00 0.00 91 1008.2
20260506161553 16 169 4.8 19.3 0.00 0.00 0.00 90 1008.9
20260506160055 16 214 0.0 4.8 0.00 0.00 0.00 90 1009.6
20260506154558 16 0 3.2 11.3 0.00 0.00 0.00 88 1009.8
20260506153112 16 0 3.2 16.1 0.00 0.00 0.00 86 1009.6
20260506151556 17 0 0.0 14.5 0.00 0.00 0.00 86 1009.7
20260506144557 17 0 1.6 16.1 0.00 0.00 0.00 80 1009.4
20260506143059 17 0 0.0 14.5 0.00 0.00 0.00 76 1009.7
20260506141551 18 252 3.2 22.5 0.00 0.00 0.00 71 1009.7
20260506134556 18 213 4.8 17.7 0.00 0.00 0.00 69 1009.2
20260506133056 18 269 1.6 19.3 0.00 0.00 0.00 71 1009.6
20260506131617 18 217 3.2 20.9 0.00 0.00 0.00 69 1009.6
20260506130051 18 0 6.4 19.3 0.00 0.00 0.00 70 1009.9
20260506124551 18 0 3.2 22.5 0.00 0.00 0.00 69 1009.7
20260506123053 18 235 4.8 20.9 0.00 0.00 0.00 71 1009.8
20260506121556 17 198 3.2 17.7 0.00 0.00 0.00 72 1009.5
20260506120051 17 209 4.8 14.5 0.00 0.00 0.00 72 1009.6
20260506114553 17 202 1.6 22.5 0.00 0.00 0.00 72 1009.5
20260506113054 17 0 1.6 16.1 0.00 0.00 0.00 72 1009.4
20260506111558 17 207 6.4 17.7 0.00 0.00 0.00 72 1009.5
20260506110055 17 181 4.8 22.5 0.00 0.00 0.00 72 1009.2
20260506104600 17 196 6.4 20.9 0.00 0.00 0.00 73 1009.1
20260506103057 17 214 8.0 24.1 0.00 0.00 0.00 73 1009.2
20260506101552 17 0 1.6 16.1 0.00 0.00 0.00 73 1009.1
20260506100100 17 210 4.8 17.7 0.00 0.00 0.00 73 1009.1
20260506094552 17 162 3.2 14.5 0.00 0.00 0.00 73 1009.1
20260506093051 17 192 3.2 17.7 0.00 0.00 0.00 73 1009.0
20260506091558 17 207 3.2 14.5 0.00 0.00 0.00 73 1009.0
20260506090100 17 220 3.2 14.5 0.00 0.00 0.00 72 1009.2
20260506084555 18 0 0.0 19.3 0.00 0.00 0.00 72 1009.3
20260506083052 18 213 3.2 12.9 0.00 0.00 0.00 71 1009.3
20260506081554 18 0 3.2 19.3 0.00 0.00 0.00 70 1009.3
20260506080104 18 0 0.0 17.7 0.00 0.00 0.00 70 1009.3
20260506073058 18 206 3.2 22.5 0.00 0.00 0.00 68 1009.4
20260506071606 18 157 4.8 19.3 0.00 0.00 0.00 67 1009.4
20260506061556 19 238 3.2 17.7 0.00 0.00 0.00 64 1009.9
20260506044553 19 208 4.8 17.7 0.00 0.00 0.00 60 1010.5
20260506043054 19 0 4.8 20.9 0.00 0.00 0.00 60 1010.6
20260506041602 19 0 0.0 16.1 0.00 0.00 0.00 60 1010.6
20260506040055 19 213 1.6 14.5 0.00 0.00 0.00 60 1010.4
20260506034613 19 247 0.0 16.1 0.00 0.00 0.00 59 1010.4
20260506033051 20 0 1.6 19.3 0.00 0.00 0.00 58 1010.3
20260506031550 20 214 0.0 11.3 0.00 0.00 0.00 57 1010.2
20260506030050 20 183 1.6 16.1 0.00 0.00 0.00 56 1010.1
20260506024612 20 0 3.2 16.1 0.00 0.00 0.00 55 1010.4
20260506023054 21 0 4.8 16.1 0.00 0.00 0.00 52 1010.4
20260506021553 21 0 0.0 12.9 0.00 0.00 0.00 49 1010.2
20260506020048 22 0 0.0 16.1 0.00 0.00 0.00 46 1010.2
20260506014550 22 0 0.0 14.5 0.00 0.00 0.00 44 1010.2
20260506013103 22 0 0.0 19.3 0.00 0.00 0.00 43 1009.8
20260506011603 22 201 4.8 17.7 0.00 0.00 0.00 42 1009.7
20260506010055 23 182 6.4 24.1 0.00 0.00 0.00 40 1009.5
20260506004551 23 0 4.8 22.5 0.00 0.00 0.00 40 1009.5
20260506003050 23 209 4.8 19.3 0.00 0.00 0.00 40 1009.2
20260506001551 23 189 1.6 17.7 0.00 0.00 0.00 41 1009.1